Wind_Speed
14 12 11 9 8 7 6 6 6 5 5 5 4 4 4 4 4 5 5 6 8 8 8 8 9 9 9 8 8 9 10 10 10 8 8 8 7 6 6 6 5 3 2 5 5 3 2 3 6 10 10 9 9 9 9 10 12 15 17 19 21 22 23
14 12 12 10 8 7 7 7 7 6 6 5 4 4 4 5 5 6 6 8 10 10 9 9 9 8 9 8 8 9 10 11 11 10 10 10 9 8 7 6 5 5 3 1 1 3 4 4 4 4 8 12 13 13 11 11 13 14 15 16 17 18 19
15 14 13 11 9 7 7 8 8 8 7 6 5 4 4 6 8 9 10 11 11 11 11 10 9 10 10 10 10 9 9 9 10 10 10 10 10 9 8 8 8 7 5 4 4 4 3 5 4 3 6 9 10 15 17 16 17 17 17 17 17 17 17
18 17 16 14 12 10 9 9 9 9 8 7 5 4 4 6 8 9 9 10 11 12 12 12 12 12 13 12 11 10 10 9 9 8 8 8 8 9 9 10 10 8 6 5 6 7 4 4 5 4 5 7 8 14 18 18 19 19 17 18 17 18 18
20 20 19 17 15 13 12 11 10 10 9 7 6 5 4 5 6 7 7 8 9 11 13 12 12 13 13 13 14 13 12 11 10 9 9 9 9 9 10 10 10 9 8 7 7 6 6 6 6 4 6 8 8 10 15 18 18 17 16 16 16 16 17
22 21 20 18 16 15 14 13 12 11 10 9 8 6 5 4 4 4 5 6 8 10 12 12 12 13 14 15 15 15 14 13 12 11 10 10 10 9 9 9 8 8 8 8 7 7 7 7 6 5 7 8 7 10 15 16 15 15 15 15 14 14 14
23 22 21 19 17 16 16 15 13 12 10 9 9 8 6 5 4 2 2 4 6 8 10 10 11 12 13 15 16 15 15 14 14 13 12 11 10 10 9 8 8 9 8 8 8 8 9 8 7 7 7 7 7 9 11 12 12 12 12 13 14 15 15
25 23 22 20 18 17 17 16 14 12 10 9 9 8 7 6 4 2 0 2 4 6 8 9 9 11 12 14 15 15 15 15 15 15 14 14 13 12 12 11 10 9 9 10 9 9 9 8 8 8 8 6 6 6 6 8 10 11 13 17 18 17 15
26 25 24 23 21 18 17 17 16 14 11 10 11 9 8 6 5 4 3 2 2 4 6 8 9 10 11 13 15 14 14 14 15 15 15 15 15 14 14 14 13 12 11 10 10 10 10 9 9 9 9 6 5 5 4 5 7 9 13 16 16 15 13
29 27 26 25 23 21 19 18 17 15 14 13 12 12 10 8 7 6 5 3 1 2 5 6 8 9 10 12 14 14 13 14 13 13 13 14 14 14 15 15 15 14 13 12 11 10 10 10 10 9 8 6 5 4 4 4 5 7 12 13 12 14 15
31 30 28 26 24 22 22 21 19 18 16 15 14 13 12 10 10 9 7 5 3 1 3 4 6 7 9 10 12 12 12 13 13 13 13 13 13 14 14 14 15 15 15 14 13 12 11 10 10 10 9 7 5 4 4 5 6 8 12 12 11 13 17
33 31 29 28 26 25 24 23 22 20 18 16 15 14 13 12 11 11 9 7 4 2 1 2 4 6 7 8 10 10 11 12 13 14 14 14 14 14 14 14 14 14 14 14 14 13 13 12 11 11 10 9 8 6 6 6 6 9 12 12 14 17 19
33 33 32 30 28 27 25 25 23 22 20 18 16 15 13 13 12 11 9 7 5 3 1 1 3 5 6 7 8 9 10 12 13 14 15 16 16 16 16 15 15 14 13 14 14 14 13 13 12 12 12 11 10 8 8 8 7 12 19 19 19 22 19
33 33 33 32 30 28 27 26 25 23 22 20 17 16 14 13 12 11 9 7 6 4 2 1 2 4 5 6 7 9 10 11 12 13 14 15 15 16 16 16 16 16 15 14 14 14 13 13 13 12 12 12 12 10 8 9 8 12 23 23 19 20 20
33 34 34 33 32 31 29 27 26 24 23 22 19 17 16 14 13 12 10 8 6 5 4 3 3 5 6 6 7 9 11 12 13 14 15 15 15 14 14 14 15 17 17 16 15 14 14 13 12 13 12 12 12 11 9 10 10 11 19 24 21 20 21
33 34 35 34 33 32 31 29 26 25 24 23 21 19 17 16 15 13 11 8 7 6 5 5 5 6 6 6 8 9 11 13 14 15 16 16 16 15 14 13 13 14 16 17 17 16 15 14 13 14 14 13 13 14 12 11 12 11 16 23 23 20 19
35 36 36 37 36 34 33 30 27 26 25 24 22 21 19 18 16 14 12 10 8 7 6 6 6 6 6 7 8 10 11 13 14 15 16 16 17 16 16 15 14 14 15 16 17 17 16 15 15 15 16 16 15 16 15 12 13 13 14 20 23 20 18
36 37 39 38 37 36 35 32 29 27 26 25 23 22 21 19 17 15 13 11 9 8 7 7 6 6 6 7 8 9 11 12 14 15 16 17 17 17 16 16 15 15 15 16 16 17 16 16 17 16 16 16 16 16 16 14 14 14 14 18 23 24 21
36 38 39 40 39 38 36 33 30 28 27 26 25 24 22 20 18 16 13 11 9 9 8 7 5 5 5 6 7 9 10 12 13 15 16 17 17 17 17 16 16 16 16 17 18 18 18 18 18 18 17 16 16 16 16 15 14 15 16 18 21 24 23
38 38 39 39 38 36 35 33 31 30 29 28 27 26 23 21 18 15 13 11 10 8 6 4 3 4 5 6 7 9 11 13 14 15 16 16 16 17 17 17 17 17 16 17 19 19 20 20 20 20 20 20 19 19 18 18 18 17 18 18 20 23 24
37 37 35 33 31 31 31 32 31 30 30 30 29 27 25 22 18 15 13 11 10 7 5 4 3 4 5 7 9 11 13 14 15 16 16 17 17 17 18 18 18 19 19 19 20 20 21 21 21 22 23 23 22 22 21 20 20 19 18 18 18 21 24
34 34 33 31 31 32 32 32 31 31 31 31 29 27 24 22 19 17 14 12 10 8 7 5 4 4 6 9 12 14 15 16 17 18 19 19 20 20 20 21 21 21 21 21 22 22 22 22 23 24 25 24 24 24 23 21 20 18 17 17 17 19 20
32 33 33 33 35 36 36 35 34 34 33 31 28 25 23 21 19 18 16 14 11 10 8 5 3 5 8 10 12 13 14 16 17 18 20 21 22 22 23 23 24 24 24 24 23 24 24 24 24 25 25 25 25 26 25 24 21 18 17 18 18 17 17
30 31 32 32 35 37 36 35 34 33 32 29 26 24 22 20 19 17 15 14 12 10 7 4 3 5 7 9 10 11 12 14 16 17 19 20 22 24 24 25 26 26 26 26 26 25 25 25 26 26 26 26 26 27 27 27 25 22 19 18 19 19 18
28 29 31 33 34 35 35 34 32 31 31 29 27 24 22 21 18 16 14 13 11 9 6 3 3 3 7 9 10 11 12 14 15 17 19 21 23 24 25 26 26 26 26 26 26 26 26 26 27 27 28 28 28 29 28 28 29 27 23 21 20 21 21
27 29 31 33 34 34 35 36 36 34 32 30 28 26 23 20 18 16 15 13 10 8 5 4 2 3 7 9 10 11 13 15 16 19 20 22 24 25 26 27 27 26 26 25 25 25 26 27 28 28 29 30 30 30 30 30 30 29 28 27 25 24 23
26 28 29 30 30 31 31 32 33 33 31 30 28 26 24 21 19 17 14 12 10 7 6 5 4 6 8 10 11 13 14 16 18 20 22 24 25 25 26 27 27 28 28 27 26 26 26 27 28 29 30 30 31 31 31 30 29 29 29 30 30 30 28
24 25 27 27 27 27 28 29 30 30 28 27 25 24 23 21 19 17 14 11 9 7 6 6 6 8 9 11 12 14 16 17 19 21 24 25 25 25 26 26 27 28 28 28 27 27 27 28 29 30 31 31 30 30 30 29 29 29 29 30 31 32 32
23 25 26 28 28 29 31 32 31 29 28 27 25 23 22 20 18 16 14 11 8 6 6 7 8 9 10 12 13 15 17 19 20 22 24 26 26 26 26 26 26 27 27 27 27 26 26 26 28 29 30 31 30 30 31 30 30 30 31 31 32 33 33
23 25 26 28 29 32 36 36 33 30 29 28 26 23 21 18 16 15 12 10 8 7 8 9 9 10 12 13 14 15 18 19 20 23 25 26 26 26 25 26 25 25 25 25 26 26 25 26 28 29 29 30 30 31 32 30 29 30 30 31 33 33 33
24 25 26 28 30 33 36 35 33 30 29 27 24 22 19 16 13 11 11 10 9 9 10 11 11 12 13 13 14 16 18 20 22 24 26 26 26 26 26 26 24 24 25 26 26 26 26 27 29 29 29 29 31 32 31 29 30 31 31 32 34 34 35
25 25 27 30 33 34 34 33 31 28 25 23 21 18 14 11 10 12 13 12 11 11 13 12 12 14 14 15 15 16 19 21 23 25 26 26 26 26 26 26 24 24 26 27 27 27 27 27 28 28 27 28 31 32 29 28 29 31 31 32 32 32 34
26 26 28 31 34 34 31 28 26 23 21 19 16 12 10 10 13 15 14 13 13 14 14 14 14 15 16 16 17 18 19 22 24 25 26 26 26 26 26 26 25 26 27 28 28 28 27 27 28 29 28 28 31 31 29 28 29 29 30 31 30 31 33
27 28 31 34 35 32 28 25 22 19 18 17 13 11 13 15 16 16 14 15 15 16 16 15 16 17 18 19 19 20 21 23 25 26 27 27 26 26 26 27 27 27 28 28 29 29 29 29 29 31 31 31 33 33 32 32 32 30 31 32 32 33 33
27 29 34 38 37 32 28 26 24 20 19 18 16 16 18 17 16 15 15 16 17 16 16 17 18 19 19 20 21 21 23 25 26 28 29 28 26 27 28 29 28 28 28 29 30 31 32 32 32 33 34 35 36 37 37 36 34 32 32 32 32 32 31
28 30 31 32 33 32 29 28 26 23 22 22 20 18 16 15 15 15 15 16 16 16 16 18 19 20 20 21 22 23 25 26 27 29 29 28 28 29 30 29 28 28 29 31 33 34 35 35 36 36 37 38 39 39 39 39 37 35 33 32 31 32 31
31 31 26 23 25 28 27 27 26 24 22 19 17 15 14 14 13 13 13 14 14 14 15 17 19 20 21 22 23 24 26 28 30 32 31 31 31 31 30 29 29 31 33 34 35 36 37 37 37 37 38 39 39 40 40 40 38 35 33 31 31 31 31
Wind_Direction
183 168 158 159 157 153 146 146 139 119 118 123 110 88 74 55 34 35 46 57 65 67 67 67 68 67 64 59 54 50 50 50 55 63 61 59 58 50 54 59 47 29 284 264 251 259 290 296 299 301 308 323 320 311 309 305 297 292 289 285 281 277 274
189 172 164 165 163 161 157 154 154 146 139 133 122 102 78 62 55 63 70 70 67 64 62 61 60 57 53 49 44 41 41 46 49 52 56 56 55 51 52 57 50 42 29 19 248 255 242 255 283 294 312 318 311 302 303 307 307 307 305 301 295 289 281
195 180 172 172 172 171 167 164 163 159 156 150 138 116 90 82 82 83 80 72 63 55 51 51 50 49 47 44 41 38 37 42 44 44 48 51 52 51 49 51 48 35 33 52 33 347 280 261 277 293 310 315 308 301 302 309 311 309 306 302 298 293 288
200 189 182 178 179 182 180 173 169 164 162 158 151 133 108 99 96 88 79 67 55 46 43 45 48 47 46 45 44 42 40 40 39 34 36 37 38 40 41 44 45 42 38 30 6 351 333 302 300 298 297 301 296 292 301 314 313 308 306 302 297 292 288
205 198 193 187 184 185 185 180 174 169 165 163 159 149 127 116 107 87 73 62 50 44 43 46 49 46 43 41 39 39 39 38 34 27 26 24 20 23 29 32 34 39 41 29 11 356 344 329 316 305 303 309 300 290 304 314 311 308 307 304 302 300 295
210 207 204 199 193 190 187 185 182 177 173 171 168 163 147 139 132 92 67 54 44 41 41 43 46 42 38 34 32 33 34 35 32 28 28 24 18 16 16 15 15 21 26 23 15 8 2 353 338 321 314 312 300 296 306 310 310 312 308 302 308 313 306
214 214 213 210 203 197 193 192 190 187 184 177 169 166 161 159 161 127 60 40 39 37 33 34 36 33 30 28 26 29 33 34 32 31 31 26 21 17 9 2 359 358 357 358 1 4 8 10 2 346 331 314 291 289 297 299 305 309 303 304 313 314 307
219 219 219 218 212 205 201 198 195 193 192 184 173 170 170 172 177 183 312 11 30 30 25 28 28 25 23 21 22 26 30 32 31 31 30 26 22 18 12 5 357 349 341 338 339 342 350 356 357 353 351 336 297 289 296 299 300 292 290 304 311 310 310
221 221 221 221 218 213 210 206 202 197 195 188 182 182 183 185 197 214 242 300 8 14 15 21 22 21 20 17 19 23 25 25 25 23 21 18 15 12 7 3 358 353 346 338 332 328 327 329 334 344 357 0 331 310 307 303 297 290 296 308 312 308 313
221 222 223 223 220 217 217 215 210 204 199 193 190 192 194 196 205 217 230 240 270 351 6 15 16 14 11 10 14 17 18 16 15 15 11 8 6 1 358 357 355 351 348 342 337 332 325 320 320 326 339 350 341 320 306 298 293 294 301 305 302 300 309
222 224 225 226 223 219 219 218 214 210 205 201 198 197 198 202 207 214 220 219 218 290 2 13 14 9 4 5 9 12 10 7 6 6 4 1 359 354 351 349 348 347 346 342 339 338 335 329 323 319 320 324 321 302 288 297 295 285 292 299 294 299 312
223 225 226 226 225 223 222 220 217 215 211 207 205 203 203 206 208 212 213 207 200 193 19 15 13 7 1 2 6 9 7 4 3 1 359 357 355 353 350 348 348 347 344 341 338 337 337 336 333 326 322 319 313 299 282 285 290 278 281 292 294 297 309
226 227 227 227 226 226 225 223 220 217 214 212 210 209 210 211 212 213 208 199 191 185 192 354 5 357 351 354 1 7 6 4 4 0 356 353 351 350 348 347 347 347 343 339 337 336 336 336 335 331 328 324 319 315 299 279 276 281 280 283 288 292 301
230 230 229 228 228 228 227 226 223 219 216 213 212 212 213 214 215 213 206 200 200 206 232 278 335 333 330 341 353 359 1 2 2 360 354 350 347 344 342 341 341 342 341 337 335 335 335 335 333 329 327 324 318 320 315 291 284 288 285 282 283 288 295
233 232 231 230 228 228 228 227 223 220 216 213 212 213 214 214 213 211 207 209 218 232 248 266 294 306 313 326 343 351 355 357 356 355 352 349 345 339 335 333 334 336 336 333 331 331 331 330 330 325 322 320 314 314 316 301 291 291 289 288 289 291 294
238 234 231 230 228 227 228 227 224 220 215 211 209 210 213 213 211 210 213 221 235 248 256 267 282 293 303 318 334 344 349 349 348 347 346 345 343 337 330 327 328 330 328 325 324 325 325 323 322 319 315 313 309 306 309 303 290 287 291 294 295 296 296
234 234 232 230 227 226 226 225 223 219 214 210 207 206 207 208 208 209 216 229 241 251 259 266 275 287 299 315 331 339 342 342 339 339 339 340 339 335 329 323 322 324 322 318 317 318 319 318 316 314 309 306 305 303 303 301 291 286 290 294 296 297 297
230 231 231 229 226 223 223 221 218 214 210 207 205 203 202 202 204 207 213 226 237 246 254 262 272 290 307 319 329 334 335 333 331 332 332 332 333 331 327 321 316 315 314 311 311 311 311 311 311 309 305 303 303 301 300 297 291 287 285 289 294 298 300
230 230 229 229 226 221 219 216 212 209 207 204 201 200 199 199 201 203 207 216 226 234 243 258 279 298 310 318 326 328 326 324 323 323 323 323 323 322 321 317 313 310 307 306 306 305 304 303 303 302 302 301 301 299 297 294 292 288 285 286 290 295 298
232 231 229 227 223 217 214 211 207 204 202 200 197 195 196 196 197 199 202 204 209 218 228 244 273 289 299 310 317 317 314 314 313 312 312 312 312 312 311 310 308 307 304 302 301 301 302 300 299 297 296 297 297 296 294 293 291 288 285 284 284 287 292
231 230 227 223 217 214 213 209 204 200 197 196 195 194 192 191 191 192 193 192 191 191 194 203 228 259 288 304 309 308 308 307 306 305 304 304 303 303 302 301 300 299 299 298 297 297 297 297 296 295 293 294 294 293 292 291 290 288 285 281 280 283 287
230 228 225 219 215 215 213 208 202 197 194 193 193 190 189 188 187 184 181 178 175 173 178 190 214 264 295 306 309 309 308 306 304 303 302 301 299 298 296 295 294 293 293 294 294 293 292 292 291 290 290 291 291 290 289 288 287 287 285 282 281 283 285
230 227 224 218 214 213 210 205 200 194 191 189 187 184 184 185 185 181 175 170 167 167 174 190 237 294 313 322 322 319 314 309 306 304 303 302 300 298 296 294 292 291 291 291 290 290 289 289 287 285 286 286 285 285 285 284 283 282 282 282 282 282 282
229 224 219 215 212 209 204 198 193 188 185 183 181 180 180 178 176 175 171 165 163 166 175 204 272 315 339 351 348 338 329 322 317 313 310 308 306 304 302 299 297 295 293 291 290 289 288 287 286 284 283 283 282 280 278 278 278 278 278 278 278 277 277
226 219 215 213 210 205 197 190 186 185 183 179 177 175 175 173 170 168 166 163 164 171 188 228 273 335 359 7 4 353 346 339 332 327 322 317 313 311 308 306 303 300 296 294 292 290 288 286 284 283 282 282 281 279 275 272 272 273 274 274 274 272 270
226 218 216 214 208 201 193 187 185 184 181 177 174 171 171 173 170 168 167 167 173 188 210 228 254 331 344 353 358 354 349 344 338 335 331 325 320 316 312 309 306 303 300 297 294 291 288 286 284 283 282 281 280 278 274 270 267 268 270 271 270 269 268
226 218 213 209 202 194 187 181 179 179 177 173 170 168 169 171 169 170 175 179 188 204 216 225 260 308 323 333 343 345 344 342 338 335 333 329 324 319 314 310 306 303 302 300 296 293 290 289 287 285 284 281 279 276 273 269 266 266 267 267 267 267 269
222 212 205 201 194 186 179 174 173 174 174 173 172 170 170 170 172 176 183 188 194 205 217 234 267 297 312 322 330 336 339 338 336 334 332 330 326 321 316 311 305 302 300 299 297 295 293 292 290 287 285 281 278 275 271 268 267 267 267 266 265 267 270
216 205 199 195 189 180 176 175 176 176 176 175 174 173 172 174 180 184 188 193 197 207 227 246 270 295 309 316 322 329 335 335 332 331 329 329 326 321 317 311 305 301 298 297 297 296 295 294 291 288 285 282 279 275 272 270 270 269 268 268 268 269 271
211 202 197 192 184 178 176 175 176 176 176 174 172 172 176 180 186 190 194 202 209 223 242 253 273 294 304 311 317 326 332 331 329 327 327 327 324 320 316 311 306 300 296 295 295 294 294 293 292 290 288 285 282 278 275 274 273 271 270 270 271 271 271
209 201 195 187 181 176 174 173 174 176 176 173 170 171 176 179 186 201 214 221 230 246 253 258 275 291 298 304 312 324 330 328 326 325 324 323 321 318 314 310 304 297 293 293 294 293 293 292 290 289 288 286 283 280 278 278 276 275 275 274 273 272 271
211 200 190 184 180 176 171 170 170 171 173 172 168 168 175 185 204 217 224 233 245 254 256 262 277 288 294 299 308 322 328 325 322 322 321 318 316 313 310 306 300 295 292 293 293 293 293 291 287 285 286 285 281 279 280 280 278 278 277 274 272 270 269
209 199 189 182 175 169 164 163 163 164 168 169 166 169 184 202 216 220 226 240 251 254 257 266 279 288 293 298 306 319 325 323 320 319 317 314 311 309 305 302 298 295 294 293 293 293 292 289 285 283 282 280 277 278 281 281 279 278 276 273 271 269 269
207 199 188 176 166 159 156 155 156 161 167 168 171 186 196 203 213 223 234 245 250 253 259 270 284 292 295 298 305 315 320 321 322 319 314 311 309 305 302 301 298 297 296 296 295 294 292 289 285 282 279 276 275 277 279 280 279 278 275 273 272 270 269
200 189 177 166 159 154 152 153 155 162 171 177 183 192 198 205 216 229 239 244 248 256 264 275 287 295 298 301 306 312 316 320 323 320 314 309 307 304 303 302 299 298 297 297 296 295 292 289 286 281 278 276 276 277 277 276 276 276 274 272 271 269 266
180 171 165 159 156 153 154 158 163 169 176 182 185 189 198 211 222 232 240 245 252 264 276 287 294 300 306 308 309 311 314 318 322 320 314 308 305 305 304 302 300 299 300 299 297 295 293 290 286 283 280 278 277 276 274 272 270 269 269 268 266 265 263
168 161 155 153 154 155 157 165 171 173 174 178 183 192 203 215 225 235 246 255 267 281 293 301 304 309 314 314 313 315 317 320 322 320 315 309 306 306 304 302 302 302 302 300 298 296 293 290 288 285 283 282 280 276 272 269 265 262 261 260 260 260 260
Height
810 811 812 813 814 815 816 817 818 819 819 820 820 821 821 821 822 822 823 823 824 824 824 825 825 826 826 826 826 826 825 825 825 826 826 826 826 827 826 826 826 826 827 828 829 829 830 829 826 824 824 824 824 824 824 824 825 825 825 825 826 826 827
811 812 812 813 814 815 816 818 818 819 820 820 821 821 822 822 822 822 823 824 824 824 824 825 825 825 826 826 826 826 826 826 826 826 827 827 827 827 827 827 827 827 827 828 828 828 829 829 828 825 824 823 822 822 823 824 824 824 824 824 824 824 824
811 812 813 813 814 815 816 817 818 820 820 821 821 822 822 822 823 823 824 824 824 824 825 825 825 825 826 826 826 827 827 827 827 828 828 828 828 828 828 827 827 827 827 827 828 828 828 828 827 826 825 824 823 821 821 822 822 822 822 822 822 822 822
811 812 812 813 814 815 816 817 818 819 820 821 822 822 823 823 823 824 824 825 825 825 825 825 825 825 826 826 827 827 827 827 828 828 828 829 829 828 828 828 828 828 828 829 829 829 829 828 827 827 825 825 824 821 819 820 820 819 820 820 820 821 821
811 811 811 811 813 814 815 816 818 819 820 821 822 822 823 823 824 824 824 825 825 825 825 825 826 826 826 827 827 827 827 827 828 828 828 828 828 828 828 828 828 829 829 830 830 830 829 829 828 826 825 824 823 820 819 819 818 817 818 818 818 818 819
810 810 810 811 811 813 814 815 817 818 819 820 821 822 823 823 824 824 824 825 825 825 826 826 826 826 827 827 827 827 827 827 828 827 827 827 827 827 828 828 828 829 829 830 830 830 829 829 828 826 825 824 823 820 819 818 817 816 815 815 816 817 817
809 809 810 810 811 812 813 815 816 817 818 819 820 821 822 823 824 824 824 825 825 825 826 826 826 826 827 827 827 827 827 827 828 828 828 828 828 828 828 828 828 828 829 829 829 829 829 829 828 828 826 824 823 820 819 818 816 815 813 813 815 815 815
807 808 809 809 810 811 812 813 815 816 817 818 819 820 821 822 823 824 824 824 825 825 826 826 826 826 827 827 827 827 828 828 828 828 828 828 828 828 828 828 828 828 828 828 827 827 827 827 827 827 826 824 822 820 818 816 815 814 813 812 812 813 813
806 807 808 808 809 810 811 812 813 815 816 817 818 819 820 821 822 823 823 824 824 825 825 825 826 826 827 827 827 828 828 828 828 828 828 828 828 828 828 828 828 828 827 827 826 826 826 826 825 825 825 824 823 820 818 815 813 812 812 811 811 810 812
803 804 805 807 808 809 810 811 812 814 814 816 817 818 819 820 821 822 823 824 824 825 825 825 825 826 826 827 827 827 828 828 829 829 829 829 829 829 829 828 828 827 827 826 826 825 825 824 824 823 823 824 824 823 820 817 813 811 811 811 811 809 810
800 802 803 804 806 807 808 809 811 812 813 814 815 816 818 818 820 821 821 823 823 824 824 825 825 825 826 826 827 827 827 827 828 828 829 829 829 829 829 828 828 827 827 826 825 825 824 824 823 822 822 822 822 823 822 819 815 811 810 811 810 809 809
798 800 801 802 804 805 806 807 809 811 813 814 815 816 817 817 818 819 820 821 822 823 823 824 824 825 825 826 826 827 827 827 827 827 827 827 827 828 828 828 827 827 826 826 825 824 824 823 822 822 821 821 821 821 821 820 816 811 809 810 809 809 809
799 799 800 801 802 803 804 805 807 809 811 813 814 815 816 817 818 818 819 820 821 821 822 822 823 824 824 825 825 826 826 826 826 826 826 826 826 826 826 826 826 826 826 825 824 824 823 823 822 821 821 820 820 820 819 819 817 810 807 809 808 808 808
798 799 799 799 800 801 802 803 805 807 809 811 812 813 815 816 817 818 819 819 820 820 820 821 821 822 823 823 824 824 824 825 825 825 825 825 825 824 824 824 824 824 824 824 824 823 823 822 821 821 820 820 819 819 818 818 817 811 806 806 807 806 806
796 797 797 798 798 799 800 802 803 805 807 808 810 811 813 814 815 817 817 818 819 819 819 820 820 820 821 822 822 822 822 822 823 823 823 823 823 823 823 822 822 822 822 821 822 822 821 821 821 820 820 819 818 818 818 817 816 813 806 803 804 804 803
794 795 795 795 796 797 798 799 801 803 804 806 808 809 811 812 814 815 816 817 817 818 818 818 818 819 819 820 820 820 821 821 820 820 820 820 820 821 821 821 821 821 820 820 819 820 820 819 819 819 818 818 817 816 816 816 814 813 808 802 801 802 801
788 790 790 791 792 794 795 797 798 800 802 804 806 807 809 810 812 813 815 816 816 817 817 818 818 818 818 819 819 819 819 819 819 819 818 818 818 818 818 818 818 818 818 818 817 817 818 817 817 817 816 816 815 814 814 814 812 811 809 803 800 800 800
781 783 785 786 787 789 791 793 795 797 799 802 804 805 807 808 810 811 813 814 815 816 816 817 817 818 818 818 818 818 818 818 818 817 817 817 816 816 816 815 815 815 815 815 815 815 815 815 815 815 814 813 813 812 811 811 810 809 808 804 799 797 798
778 778 780 781 782 784 786 788 791 793 796 798 800 803 805 807 808 809 811 812 814 815 816 817 817 817 818 817 817 817 816 816 816 816 816 816 815 814 814 813 813 813 813 812 812 811 811 812 812 812 812 811 811 810 809 809 808 807 806 804 800 796 795
775 776 777 779 780 782 784 785 787 790 792 794 797 799 802 805 807 808 809 811 812 814 815 816 816 817 817 817 816 816 815 815 815 814 814 814 813 813 812 811 811 810 810 809 809 808 808 808 808 808 808 808 808 808 807 806 806 805 804 802 800 796 793
773 774 776 778 781 784 786 786 786 787 789 791 793 795 798 801 804 806 808 809 810 812 813 815 815 816 816 816 816 815 814 814 813 812 812 811 811 811 810 809 809 808 807 807 806 806 805 805 805 804 804 805 804 804 804 803 802 802 801 800 797 795 792
771 773 774 775 778 781 784 785 785 785 787 789 791 793 796 799 801 804 806 807 809 810 812 813 814 815 815 815 815 814 813 812 811 810 810 809 808 808 807 806 806 805 805 804 804 803 803 803 802 801 801 801 801 800 800 800 799 798 798 796 795 793 791
769 770 771 773 775 776 778 781 782 782 785 788 790 793 795 797 800 802 804 805 807 809 810 812 813 814 814 814 813 813 812 811 810 809 807 806 805 805 804 803 803 802 802 801 801 800 799 799 799 798 798 798 798 797 796 796 796 796 795 793 792 791 789
767 768 769 771 773 774 775 777 779 782 784 787 790 792 795 797 799 801 803 804 805 807 809 810 812 813 813 813 812 811 810 809 808 807 806 804 803 801 801 800 800 799 798 798 797 796 796 795 795 795 794 794 794 794 794 792 792 792 792 790 789 788 787
765 765 766 768 769 771 773 775 779 783 784 786 788 791 795 797 799 801 802 803 805 806 807 808 810 811 811 811 810 809 809 808 807 806 804 802 801 799 798 797 796 796 795 794 794 793 792 791 790 790 790 790 790 790 790 789 788 788 788 787 786 785 784
763 763 764 765 767 770 771 772 775 779 782 783 784 787 792 795 798 799 801 802 803 804 805 807 808 809 809 809 808 807 806 806 805 804 803 801 799 797 796 794 793 792 792 791 791 790 788 787 786 786 785 785 785 784 785 785 785 784 784 784 782 780 780
761 762 764 766 767 769 771 772 774 777 781 783 783 785 789 793 796 797 798 800 801 802 804 805 806 807 807 806 806 805 804 803 802 802 801 799 797 795 794 792 791 789 789 788 787 786 785 784 782 781 780 780 779 779 779 779 780 780 780 779 778 776 776
760 762 763 765 766 768 770 773 776 778 781 783 784 785 788 791 794 796 797 797 798 800 802 803 803 804 804 804 803 802 801 800 800 799 798 797 795 793 792 790 789 787 786 785 784 783 782 781 779 777 776 775 774 774 774 774 775 775 775 775 774 772 772
759 760 761 762 764 766 768 771 774 777 779 781 783 785 787 790 792 794 795 795 796 798 799 800 801 801 801 801 800 799 799 798 797 796 795 794 793 791 789 788 786 785 783 782 781 781 780 779 776 774 772 770 770 769 768 769 770 770 770 770 769 769 768
757 758 759 760 762 763 765 768 771 775 778 780 782 784 787 790 791 793 795 794 795 796 797 798 798 798 798 798 797 797 796 795 794 793 791 790 789 788 787 785 784 782 780 780 779 778 778 777 774 772 769 767 765 764 763 764 765 765 765 765 764 764 764
755 756 757 759 761 762 764 765 769 773 777 779 780 783 786 789 791 793 795 795 795 795 796 796 796 796 796 796 795 794 793 792 791 789 787 786 785 784 783 782 781 779 778 777 776 775 775 774 771 769 767 764 761 759 759 760 760 760 760 760 760 759 759
753 754 755 757 759 761 763 765 768 772 776 778 780 782 785 787 790 793 794 795 794 794 794 795 794 794 794 794 793 792 790 789 787 785 784 782 781 780 779 778 777 776 774 773 772 772 771 771 768 766 764 762 758 755 756 757 756 755 755 755 754 754 753
750 752 753 755 757 759 762 765 768 771 774 777 779 781 784 787 790 792 793 793 793 793 793 793 793 793 792 791 791 789 788 786 783 782 780 779 778 777 775 774 773 772 770 769 768 767 767 766 764 762 761 758 754 752 753 753 752 752 751 749 749 749 748
748 749 751 753 756 758 761 763 767 770 773 775 778 780 783 786 789 790 791 792 792 792 792 792 792 791 790 789 788 787 785 783 781 779 777 776 774 772 770 769 768 766 765 764 762 762 761 760 759 757 755 753 750 749 750 749 748 748 747 745 744 743 742
746 748 750 751 753 756 759 761 764 768 771 773 776 779 782 784 786 788 789 790 790 790 791 791 790 790 788 787 786 784 782 780 778 776 773 771 769 768 766 764 763 761 760 759 757 756 755 754 753 751 749 747 746 745 745 744 744 744 742 740 739 738 737
745 747 750 751 751 752 756 759 762 766 769 772 775 778 781 783 785 787 788 789 789 789 789 789 789 788 786 785 783 781 780 778 776 773 770 767 765 763 761 760 758 757 755 754 752 750 748 747 746 744 742 741 740 739 739 738 738 738 737 735 734 732 731
744 747 751 755 755 755 757 759 763 766 769 772 775 777 780 783 784 786 787 788 788 788 788 788 787 786 784 782 780 779 777 774 772 770 766 763 761 759 757 756 754 752 750 748 746 744 742 741 739 737 736 734 733 733 733 732 731 731 730 729 728 726 725